Phoenix, AZ

1:21 AM MST on December 06, 2016 (GMT -0700)
Phoenix-Deer Valley Municipal

Weather History for KDVT - January, 2014

Change the Weather History Date:

Tuesday, January 28, 2014

  Actual Average Record
Temperature  
Mean Temperature 57 °F -  
Max Temperature 70 °F 64 °F 75 °F (1998)
Min Temperature 44 °F 44 °F 37 °F (1999)
Degree Days  
Heating Degree Days 8    
Growing Degree Days 7 (Base 50)    
Moisture  
Dew Point 25 °F    
Average Humidity 32    
Maximum Humidity 51    
Minimum Humidity 18    
Precipitation  
Precipitation 0.00 in - - ()
Sea Level Pressure  
Sea Level Pressure 30.01 in    
Wind  
Wind Speed 3 mph (North)    
Max Wind Speed 7 mph    
Max Gust Speed -    
Visibility 10 miles    
Events      
Averages and records for this station are not official NWS values.
T = Trace of Precipitation, MM = Missing Value Source: NWS Daily Summary

Daily Weather History Graph

Daily Weather History Graph

Search for Another Location

Airport or City:

Trip Planner

Search our weather history database for the weather conditions in past years. The results will help you decide how hot, cold, wet, or windy it might be!

Date:

Astronomy

Jan. 28, 2014 Rise Set
Actual Time 7:27 AM MST 5:55 PM MST
Civil Twilight 7:00 AM MST 6:21 PM MST
Nautical Twilight 6:30 AM MST 6:51 PM MST
Astronomical Twilight 6:01 AM MST 7:21 PM MST
Moon 5:10 AM MST (1/28) 3:51 PM MST (1/28)
Length of Visible Light 11h 21m
Length of Day
10h 28m
Waning Crescent, 7% of the Moon is Illuminated
Jan 28
Waning Crescent
Jan 30
New
Feb 6
First Quarter
Feb 14
Full
Feb 22
Last Quarter

Hourly Weather History & Observations

Time (MST) Temp. Windchill Dew Point Humidity Pressure Visibility Wind Dir Wind Speed Gust Speed Precip Events Conditions
12:53 AM 50.0 °F - 27.0 °F 41% 29.96 in 10.0 mi NNE 5.8 mph - N/A   Clear
1:53 AM 46.0 °F 44.8 °F 27.0 °F 47% 29.97 in 10.0 mi NNE 3.5 mph - N/A   Clear
2:53 AM 46.9 °F - 26.1 °F 44% 29.96 in 10.0 mi Calm Calm - N/A   Clear
3:53 AM 46.9 °F - 26.1 °F 44% 29.97 in 10.0 mi Calm Calm - N/A   Clear
4:53 AM 44.1 °F - 27.0 °F 51% 29.98 in 10.0 mi Calm Calm - N/A   Clear
5:53 AM 44.1 °F 42.5 °F 25.0 °F 47% 29.99 in 10.0 mi WNW 3.5 mph - N/A   Clear
6:53 AM 44.1 °F - 26.1 °F 49% 30.02 in 10.0 mi Calm Calm - N/A   Clear
7:53 AM 44.1 °F 41.5 °F 25.0 °F 47% 30.04 in 10.0 mi ESE 4.6 mph - N/A   Clear
8:53 AM 52.0 °F - 24.1 °F 34% 30.06 in 10.0 mi NE 6.9 mph - N/A   Clear
9:53 AM 57.9 °F - 26.1 °F 30% 30.07 in 10.0 mi Calm Calm - N/A   Clear
10:53 AM 62.1 °F - 25.0 °F 24% 30.08 in 10.0 mi SSW 3.5 mph - N/A   Clear
11:53 AM 64.0 °F - 25.0 °F 23% 30.07 in 10.0 mi Calm Calm - N/A   Clear
12:53 PM 68.0 °F - 24.1 °F 19% 30.01 in 10.0 mi Variable 3.5 mph - N/A   Clear
1:53 PM 69.1 °F - 23.0 °F 18% 29.99 in 10.0 mi SW 5.8 mph - N/A   Clear
2:53 PM 70.0 °F - 24.1 °F 18% 29.97 in 10.0 mi Variable 3.5 mph - N/A   Clear
3:53 PM 69.1 °F - 24.1 °F 18% 29.96 in 10.0 mi Calm Calm - N/A   Clear
4:53 PM 68.0 °F - 25.0 °F 20% 29.97 in 10.0 mi WNW 5.8 mph - N/A   Clear
5:53 PM 64.9 °F - 24.1 °F 21% 29.99 in 10.0 mi West 4.6 mph - N/A   Clear
6:53 PM 62.1 °F - 25.0 °F 24% 30.00 in 10.0 mi Calm Calm - N/A   Clear
7:53 PM 57.0 °F - 26.1 °F 30% 30.02 in 10.0 mi Calm Calm - N/A   Clear
8:53 PM 54.0 °F - 26.1 °F 34% 30.03 in 10.0 mi Calm Calm - N/A   Clear
9:53 PM 53.1 °F - 26.1 °F 35% 30.03 in 10.0 mi Calm Calm - N/A   Clear
10:53 PM 55.9 °F - 24.1 °F 29% 30.04 in 10.0 mi NE 6.9 mph - N/A   Clear
11:53 PM 53.1 °F - 23.0 °F 31% 30.01 in 10.0 mi NE 3.5 mph - N/A   Clear